• In Deutschland
  • Länderverzeichnis
  • Für 7 Tage
  • Wassertemperatur
  • Satellitenkarten
  • Wetterkarte
  • Widgets
  • user-avatar
    Anmelden

    Stündliche Wetter Canillo

    Heute, 17 Januar, Mittwoch

    Zeit Temperatur Niederschläge Wind Luftdruck Luftfeuchtigkeit
    00:00 -1°C° 0 mm 3 m/S 616 mmHg 83%
    01:00 -1°C° 0 mm 3 m/S 616 mmHg 84%
    02:00 -2°C° 0 mm 4 m/S 616 mmHg 85%
    03:00 -2°C° 0 mm 4 m/S 616 mmHg 86%
    04:00 -3°C° 0,1 mm 4 m/S 616 mmHg 86%
    05:00 -3°C° 0,1 mm 4 m/S 616 mmHg 85%
    06:00 -3°C° 0,1 mm 4 m/S 616 mmHg 84%
    07:00 -3°C° 0,1 mm 4 m/S 617 mmHg 82%
    08:00 -4°C° 0,1 mm 5 m/S 617 mmHg 79%
    09:00 -2°C° 0,1 mm 5 m/S 618 mmHg 76%
    10:00 -2°C° 0,1 mm 5 m/S 619 mmHg 73%
    11:00 -1°C° 0,1 mm 5 m/S 619 mmHg 70%
    12:00 -1°C° 0,1 mm 5 m/S 620 mmHg 66%
    13:00 -1°C° 0 mm 5 m/S 620 mmHg 66%
    14:00 -1°C° 0 mm 4 m/S 620 mmHg 65%
    15:00 -1°C° 0 mm 4 m/S 620 mmHg 64%
    16:00 -2°C° 0 mm 4 m/S 620 mmHg 69%
    17:00 -4°C° 0 mm 3 m/S 620 mmHg 74%
    18:00 -5°C° 0 mm 3 m/S 620 mmHg 79%
    19:00 -5°C° 0 mm 3 m/S 620 mmHg 79%
    20:00 -6°C° 0 mm 3 m/S 620 mmHg 79%
    21:00 -5°C° 0 mm 2 m/S 621 mmHg 79%
    22:00 -5°C° 0 mm 2 m/S 621 mmHg 78%
    23:00 -5°C° 0 mm 2 m/S 621 mmHg 77%

    Morgen, 18 Januar, Donnerstag

    Zeit Temperatur Niederschläge Wind Luftdruck Luftfeuchtigkeit
    00:00 -5°C° 0 mm 2 m/S 621 mmHg 75%
    01:00 -5°C° 0 mm 2 m/S 621 mmHg 74%
    02:00 -3°C° 0 mm 1 m/S 620 mmHg 72%
    03:00 -3°C° 0 mm 1 m/S 620 mmHg 71%
    04:00 -3°C° 0 mm 1 m/S 620 mmHg 71%
    05:00 -3°C° 0 mm 1 m/S 620 mmHg 71%
    06:00 -3°C° 0 mm 1 m/S 620 mmHg 71%
    07:00 -2°C° 0 mm 1 m/S 620 mmHg 70%
    08:00 -1°C° 0 mm 1 m/S 621 mmHg 68%
    09:00 0°C° 0 mm 1 m/S 621 mmHg 67%
    10:00 +2°C° 0 mm 1 m/S 622 mmHg 66%
    11:00 +3°C° 0 mm 1 m/S 622 mmHg 64%
    12:00 +4°C° 0 mm 1 m/S 622 mmHg 63%
    13:00 +5°C° 0 mm 1 m/S 621 mmHg 64%
    14:00 +5°C° 0 mm 1 m/S 621 mmHg 64%
    15:00 +5°C° 0 mm 1 m/S 620 mmHg 65%
    16:00 +3°C° 0 mm 1 m/S 619 mmHg 69%
    17:00 +1°C° 0 mm 1 m/S 619 mmHg 74%
    18:00 -2°C° 0 mm 2 m/S 618 mmHg 78%
    19:00 -3°C° 0 mm 2 m/S 618 mmHg 76%
    20:00 -3°C° 0 mm 2 m/S 618 mmHg 75%
    21:00 -3°C° 0 mm 2 m/S 618 mmHg 73%
    22:00 -3°C° 0 mm 2 m/S 618 mmHg 72%
    23:00 -3°C° 0 mm 2 m/S 617 mmHg 72%

    übermorgen, 19 Januar, Freitag

    Zeit Temperatur Niederschläge Wind Luftdruck Luftfeuchtigkeit
    00:00 -3°C° 0 mm 2 m/S 617 mmHg 71%
    01:00 -3°C° 0 mm 2 m/S 617 mmHg 71%
    02:00 -2°C° 0 mm 2 m/S 617 mmHg 71%
    03:00 -2°C° 0 mm 2 m/S 616 mmHg 72%
    04:00 -2°C° 0 mm 2 m/S 616 mmHg 75%
    05:00 -2°C° 0 mm 2 m/S 616 mmHg 79%
    06:00 -2°C° 0 mm 2 m/S 616 mmHg 82%
    07:00 -1°C° 0,1 mm 2 m/S 617 mmHg 82%
    08:00 +1°C° 0,1 mm 2 m/S 617 mmHg 82%
    09:00 +1°C° 0,1 mm 2 m/S 618 mmHg 81%
    10:00 +2°C° 0 mm 2 m/S 618 mmHg 77%
    11:00 +3°C° 0 mm 2 m/S 618 mmHg 73%
    12:00 +4°C° 0 mm 2 m/S 618 mmHg 69%
    13:00 +2°C° 0 mm 3 m/S 618 mmHg 69%
    14:00 +2°C° 0 mm 3 m/S 618 mmHg 69%
    15:00 +1°C° 0 mm 3 m/S 617 mmHg 69%
    16:00 0°C° 0 mm 3 m/S 617 mmHg 72%
    17:00 -2°C° 0 mm 3 m/S 617 mmHg 75%
    18:00 -4°C° 0 mm 3 m/S 616 mmHg 78%
    19:00 -4°C° 0 mm 3 m/S 617 mmHg 78%
    20:00 -5°C° 0 mm 3 m/S 617 mmHg 77%
    21:00 -5°C° 0 mm 3 m/S 617 mmHg 76%
    22:00 -5°C° 0 mm 3 m/S 617 mmHg 77%
    23:00 -5°C° 0 mm 3 m/S 617 mmHg 78%

    20 Januar, Samstag

    Zeit Temperatur Niederschläge Wind Luftdruck Luftfeuchtigkeit
    00:00 -5°C° 0 mm 3 m/S 617 mmHg 79%
    01:00 -6°C° 0 mm 3 m/S 617 mmHg 79%
    02:00 -6°C° 0 mm 3 m/S 617 mmHg 78%
    03:00 -6°C° 0 mm 3 m/S 617 mmHg 78%
    04:00 -6°C° 0 mm 3 m/S 617 mmHg 78%
    05:00 -6°C° 0 mm 3 m/S 617 mmHg 77%
    06:00 -6°C° 0 mm 3 m/S 617 mmHg 77%
    07:00 -4°C° 0 mm 2 m/S 617 mmHg 75%
    08:00 -3°C° 0 mm 2 m/S 618 mmHg 72%
    09:00 -2°C° 0 mm 2 m/S 618 mmHg 70%
    10:00 -1°C° 0 mm 2 m/S 618 mmHg 66%
    11:00 +1°C° 0 mm 2 m/S 618 mmHg 62%
    12:00 +2°C° 0 mm 2 m/S 618 mmHg 58%
    13:00 +2°C° 0,7 mm 2 m/S 617 mmHg 65%
    14:00 +1°C° 0,7 mm 2 m/S 616 mmHg 71%
    15:00 0°C° 0,7 mm 3 m/S 615 mmHg 77%
    16:00 0°C° 1,3 mm 3 m/S 615 mmHg 80%
    17:00 -1°C° 1,3 mm 4 m/S 615 mmHg 83%
    18:00 -1°C° 1,3 mm 5 m/S 614 mmHg 86%
    19:00 -1°C° 1,2 mm 5 m/S 615 mmHg 87%
    20:00 -1°C° 1,2 mm 6 m/S 615 mmHg 89%
    21:00 -1°C° 1,2 mm 6 m/S 616 mmHg 91%
    22:00 -1°C° 0,5 mm 6 m/S 616 mmHg 91%
    23:00 0°C° 0,5 mm 5 m/S 616 mmHg 91%

    21 Januar, Sonntag

    Zeit Temperatur Niederschläge Wind Luftdruck Luftfeuchtigkeit
    00:00 -1°C° 0,5 mm 4 m/S 616 mmHg 91%
    01:00 0°C° 0,5 mm 4 m/S 617 mmHg 91%
    02:00 0°C° 0,5 mm 4 m/S 617 mmHg 91%
    03:00 0°C° 0,5 mm 4 m/S 618 mmHg 91%
    04:00 0°C° 0,8 mm 4 m/S 618 mmHg 91%
    05:00 0°C° 0,8 mm 4 m/S 619 mmHg 91%
    06:00 +1°C° 0,8 mm 3 m/S 619 mmHg 91%
    07:00 +1°C° 0,8 mm 3 m/S 620 mmHg 90%
    08:00 +2°C° 0,8 mm 3 m/S 620 mmHg 89%
    09:00 +2°C° 0,8 mm 3 m/S 621 mmHg 88%
    10:00 +2°C° 0,3 mm 3 m/S 621 mmHg 86%
    11:00 +3°C° 0,3 mm 3 m/S 622 mmHg 83%
    12:00 +4°C° 0,3 mm 3 m/S 622 mmHg 80%
    13:00 +4°C° 0,1 mm 3 m/S 622 mmHg 79%
    14:00 +4°C° 0,1 mm 3 m/S 622 mmHg 79%
    15:00 +4°C° 0,1 mm 3 m/S 622 mmHg 78%
    16:00 +3°C° 0 mm 3 m/S 622 mmHg 81%
    17:00 +2°C° 0 mm 3 m/S 622 mmHg 83%
    18:00 +1°C° 0 mm 3 m/S 622 mmHg 86%
    19:00 +2°C° 0 mm 2 m/S 622 mmHg 86%
    20:00 +1°C° 0 mm 2 m/S 622 mmHg 86%
    21:00 +1°C° 0 mm 2 m/S 623 mmHg 86%
    22:00 +1°C° 0 mm 2 m/S 622 mmHg 85%
    23:00 -1°C° 0 mm 2 m/S 622 mmHg 85%

    22 Januar, Montag

    Zeit Temperatur Niederschläge Wind Luftdruck Luftfeuchtigkeit
    00:00 -1°C° 0 mm 2 m/S 622 mmHg 85%
    01:00 -1°C° 0 mm 2 m/S 622 mmHg 83%
    02:00 -1°C° 0 mm 2 m/S 622 mmHg 81%
    03:00 -1°C° 0 mm 3 m/S 622 mmHg 80%
    04:00 -1°C° 0 mm 2 m/S 622 mmHg 80%
    05:00 -1°C° 0 mm 2 m/S 622 mmHg 80%
    06:00 -1°C° 0 mm 2 m/S 622 mmHg 80%
    07:00 +1°C° 0 mm 2 m/S 622 mmHg 78%
    08:00 +2°C° 0 mm 2 m/S 623 mmHg 76%
    09:00 +2°C° 0 mm 2 m/S 623 mmHg 74%
    10:00 +4°C° 0 mm 2 m/S 624 mmHg 71%
    11:00 +5°C° 0 mm 2 m/S 624 mmHg 69%
    12:00 +7°C° 0 mm 2 m/S 625 mmHg 66%
    13:00 +7°C° 0 mm 2 m/S 624 mmHg 67%
    14:00 +7°C° 0 mm 2 m/S 624 mmHg 69%
    15:00 +6°C° 0 mm 2 m/S 624 mmHg 70%
    16:00 +5°C° 0 mm 2 m/S 623 mmHg 75%
    17:00 +4°C° 0 mm 1 m/S 622 mmHg 80%
    18:00 +2°C° 0 mm 1 m/S 622 mmHg 84%
    19:00 +2°C° 0 mm 1 m/S 622 mmHg 83%
    20:00 +2°C° 0 mm 1 m/S 622 mmHg 81%
    21:00 +2°C° 0 mm 1 m/S 622 mmHg 79%
    22:00 +2°C° 0 mm 1 m/S 622 mmHg 77%
    23:00 +2°C° 0 mm 1 m/S 622 mmHg 75%
    Mehr zeigen